Regional Weather Roundup
Issued by NWS

Home | Current Version | Previous Version | Text Only | Print | Product List | Glossary On
Versions: 1 2 3 4 5 6 7 8 9 10 11 12 13 14 15 16 17 18 19 20 21 22 23 24 25 26 27 28 29 30 31 32 33 34 35 36 37 38 39 40 41 42 43 44 45 46 47 48 49 50
000
ASUS44 KJAN 260010
RWRMS

MISSISSIPPI HOURLY WEATHER ROUNDUP
NATIONAL WEATHER SERVICE JACKSON MS
700 PM CDT WED MAY 25 2016

NOTE: "FAIR: INDICATES FEW OR NO CLOUDS BELOW 12,000 FEET WITH NO
SIGNIFICANT WEATHER AND/OR OBSTRUCTIONS TO VISIBILITY.

MSZ001>002-007>008-010>013-018>021-025>028-034>036-260100-
NORTHWEST MISSISSIPPI

CITY           SKY/WX    TMP DP  RH WIND       PRES   REMARKS
BATESVILLE     FAIR      78  68  71 NE5       30.07R
CLARKSDALE     PTSUNNY   81  75  83 E8        30.03S
CLEVELAND      MOCLDY    86  72  63 S8        30.01R HX  92
GREENWOOD      MOSUNNY   83  67  58 SE14      30.02F
6HR MIN TEMP:  83; 6HR MAX TEMP:  88;

GREENVILLE     CLOUDY    83  69  62 SW14G30   30.00F
6HR MIN TEMP:  83; 6HR MAX TEMP:  89;

OLIVE BRANCH   PTSUNNY   70  70 100 SE5       30.08R
OXFORD         FAIR      77  66  69 E5        30.11R
TUNICA         PTCLDY    73  68  83 E9        30.05S
WINONA         FAIR      82  66  58 SE6       30.07F
$$

MSZ003>006-009-014>017-022>024-029>033-037>039-260100-
NORTHEAST MISSISSIPPI

CITY           SKY/WX    TMP DP  RH WIND       PRES   REMARKS
COLUMBUS AFB   CLOUDY    83  64  53 SE7       30.11R
6HR MIN TEMP:  83; 6HR MAX TEMP:  88; 6HR PCP: TRACE;

CORINTH        FAIR      66  64  94 SE16      30.11F
GOLDN TRIANGLE PTCLDY    82  64  54 S9        30.11R
STARKVILLE     FAIR      82  64  54 NE5       30.10S
TUPELO         CLOUDY    76  61  59 N17G23    30.13R
6HR MIN TEMP:  76; 6HR MAX TEMP:  88;

$$

MSZ040-058-260100-
CENTRAL MISSISSIPPI

CITY           SKY/WX    TMP DP  RH WIND       PRES   REMARKS
JACKSON INTL   CLOUDY    85  67  54 S10       30.07R
6HR MIN TEMP:  84; 6HR MAX TEMP:  89;

JACKSON HAWKNS MOSUNNY   84  67  56 SE10      30.08R THUNDER
6HR MIN TEMP:  83; 6HR MAX TEMP:  89;

MADISON        FAIR      82  68  61 CALM      30.07S
MERIDIAN KEY   PTCLDY    87  65  47 SE6       30.11R
MERIDIAN NAS   PTCLDY    84  63  49 SE3       30.12R
6HR MIN TEMP:  84; 6HR MAX TEMP:  90;

VICKSBURG TVR  TSTM      83  72  69 S5        30.03F
6HR MIN TEMP:  83; 6HR MAX TEMP:  91; 6HR PCP: TRACE;

VICKSBURG VKS  CLOUDY    84  70  61 SE5       30.04S
$$

MSZ059>079-260100-
SOUTH MISSISSIPPI

CITY           SKY/WX    TMP DP  RH WIND       PRES   REMARKS
BROOKHAVEN     FAIR     N/A N/A N/A S9        30.08S
COLUMBIA       FAIR      82  72  69 S8        30.13S
HATTIESBURG    PTCLDY    83  68  60 S9        30.11S
6HR MIN TEMP:  83; 6HR MAX TEMP:  89;

MCCOMB         CLOUDY    83  70  64 S9        30.08S
6HR MIN TEMP:  83; 6HR MAX TEMP:  88;

NATCHEZ        CLOUDY    84  72  65 S6        30.05S
6HR MIN TEMP:  84; 6HR MAX TEMP:  90;

PINE BELT      PTCLDY    82  66  57 S9        30.12S
6HR MIN TEMP:  82; 6HR MAX TEMP:  88;

$$

MSZ080>082-260100-
COASTAL MISSISSIPPI

CITY           SKY/WX    TMP DP  RH WIND       PRES   REMARKS
BILOXI         CLEAR     79  69  70 S6        30.12F
6HR MIN TEMP:  79; 6HR MAX TEMP:  83;

PASCAGOULA     CLEAR     79  66  64 SE7       30.13S
6HR MIN TEMP:  79; 6HR MAX TEMP:  85;

GULFPORT       CLEAR     80  67  64 SE9       30.11F
6HR MIN TEMP:  80; 6HR MAX TEMP:  84;

$$




USA.gov is the U.S. government's official web portal to all federal, state and local government web resources and services.